• en France
  • Liste des pays
  • À 7 jours
  • Température de l'eau
  • Carte satellitaire
  • Carte météo
  • Widgets météo
  • user-avatar
    Se connecter

    Météo par heure à Kaprun

    Ce jour, 15 Octobre, Lundi

    Heure Température Précipitation Vent Pression Humidité
    00:00 +1°C° 0 mm 3 m/s 597 mmHg 89%
    01:00 +1°C° 0 mm 3 m/s 597 mmHg 91%
    02:00 +1°C° 0 mm 3 m/s 597 mmHg 91%
    03:00 +1°C° 0 mm 3 m/s 597 mmHg 90%
    04:00 +1°C° 0 mm 3 m/s 597 mmHg 90%
    05:00 +2°C° 0 mm 2 m/s 597 mmHg 89%
    06:00 +1°C° 0 mm 2 m/s 597 mmHg 88%
    07:00 +2°C° 0 mm 2 m/s 597 mmHg 85%
    08:00 +3°C° 0 mm 3 m/s 598 mmHg 77%
    09:00 +5°C° 0 mm 3 m/s 599 mmHg 69%
    10:00 +8°C° 0 mm 3 m/s 600 mmHg 62%
    11:00 +9°C° 0 mm 3 m/s 600 mmHg 59%
    12:00 +9°C° 0 mm 3 m/s 600 mmHg 56%
    13:00 +10°C° 0 mm 3 m/s 600 mmHg 53%
    14:00 +10°C° 0 mm 3 m/s 600 mmHg 57%
    15:00 +9°C° 0 mm 3 m/s 600 mmHg 61%
    16:00 +8°C° 0 mm 2 m/s 599 mmHg 65%
    17:00 +7°C° 0 mm 2 m/s 599 mmHg 73%
    18:00 +5°C° 0 mm 2 m/s 598 mmHg 80%
    19:00 +3°C° 0 mm 2 m/s 597 mmHg 87%
    20:00 +3°C° 0 mm 2 m/s 598 mmHg 88%
    21:00 +2°C° 0 mm 2 m/s 598 mmHg 89%
    22:00 +2°C° 0 mm 2 m/s 598 mmHg 90%
    23:00 +2°C° 0 mm 2 m/s 598 mmHg 90%

    Demain, 16 Octobre, Mardi

    Heure Température Précipitation Vent Pression Humidité
    00:00 +1°C° 0 mm 2 m/s 598 mmHg 91%
    01:00 +1°C° 0 mm 2 m/s 597 mmHg 91%
    02:00 +1°C° 0 mm 2 m/s 597 mmHg 90%
    03:00 +1°C° 0 mm 2 m/s 597 mmHg 89%
    04:00 +1°C° 0 mm 1 m/s 597 mmHg 88%
    05:00 +2°C° 0 mm 1 m/s 597 mmHg 86%
    06:00 +2°C° 0 mm 1 m/s 598 mmHg 84%
    07:00 +2°C° 0 mm 1 m/s 598 mmHg 82%
    08:00 +5°C° 0 mm 1 m/s 599 mmHg 72%
    09:00 +7°C° 0 mm 1 m/s 600 mmHg 63%
    10:00 +10°C° 0 mm 1 m/s 601 mmHg 53%
    11:00 +11°C° 0 mm 1 m/s 602 mmHg 51%
    12:00 +11°C° 0 mm 1 m/s 602 mmHg 49%
    13:00 +12°C° 0 mm 1 m/s 602 mmHg 46%
    14:00 +11°C° 0 mm 1 m/s 602 mmHg 52%
    15:00 +11°C° 0 mm 1 m/s 601 mmHg 58%
    16:00 +10°C° 0 mm 1 m/s 601 mmHg 64%
    17:00 +8°C° 0 mm 1 m/s 600 mmHg 73%
    18:00 +6°C° 0 mm 1 m/s 599 mmHg 82%
    19:00 +4°C° 0 mm 1 m/s 599 mmHg 91%
    20:00 +3°C° 0 mm 1 m/s 599 mmHg 91%
    21:00 +3°C° 0 mm 1 m/s 599 mmHg 90%
    22:00 +3°C° 0 mm 1 m/s 599 mmHg 90%
    23:00 +3°C° 0 mm 1 m/s 598 mmHg 90%

    Après-demain, 17 Octobre, Mercredi

    Heure Température Précipitation Vent Pression Humidité
    00:00 +3°C° 0 mm 1 m/s 598 mmHg 89%
    01:00 +3°C° 0 mm 1 m/s 598 mmHg 89%
    02:00 +2°C° 0 mm 1 m/s 598 mmHg 89%
    03:00 +2°C° 0 mm 1 m/s 598 mmHg 88%
    04:00 +2°C° 0 mm 1 m/s 598 mmHg 88%
    05:00 +2°C° 0 mm 1 m/s 598 mmHg 88%
    06:00 +2°C° 0 mm 1 m/s 598 mmHg 87%
    07:00 +2°C° 0 mm 1 m/s 598 mmHg 87%
    08:00 +5°C° 0 mm 1 m/s 599 mmHg 77%
    09:00 +8°C° 0 mm 1 m/s 600 mmHg 68%
    10:00 +10°C° 0 mm 1 m/s 601 mmHg 58%
    11:00 +11°C° 0 mm 1 m/s 601 mmHg 56%
    12:00 +11°C° 0 mm 1 m/s 601 mmHg 54%
    13:00 +12°C° 0 mm 1 m/s 601 mmHg 52%
    14:00 +11°C° 0 mm 1 m/s 601 mmHg 58%
    15:00 +11°C° 0 mm 1 m/s 600 mmHg 64%
    16:00 +10°C° 0 mm 1 m/s 600 mmHg 70%
    17:00 +8°C° 0 mm 1 m/s 599 mmHg 78%
    18:00 +6°C° 0 mm 1 m/s 598 mmHg 86%
    19:00 +4°C° 0 mm 1 m/s 598 mmHg 94%
    20:00 +4°C° 0 mm 1 m/s 598 mmHg 94%
    21:00 +4°C° 0 mm 1 m/s 598 mmHg 94%
    22:00 +4°C° 0 mm 1 m/s 598 mmHg 94%
    23:00 +4°C° 0 mm 1 m/s 598 mmHg 93%

    18 Octobre, Jeudi

    Heure Température Précipitation Vent Pression Humidité
    00:00 +3°C° 0 mm 1 m/s 597 mmHg 93%
    01:00 +3°C° 0 mm 1 m/s 597 mmHg 92%
    02:00 +3°C° 0 mm 1 m/s 597 mmHg 92%
    03:00 +3°C° 0 mm 1 m/s 597 mmHg 91%
    04:00 +3°C° 0 mm 1 m/s 597 mmHg 91%
    05:00 +3°C° 0 mm 1 m/s 597 mmHg 90%
    06:00 +3°C° 0 mm 1 m/s 597 mmHg 90%
    07:00 +3°C° 0 mm 1 m/s 597 mmHg 90%
    08:00 +4°C° 0 mm 0 m/s 598 mmHg 82%
    09:00 +7°C° 0 mm 0 m/s 599 mmHg 74%
    10:00 +9°C° 0 mm 0 m/s 600 mmHg 66%
    11:00 +11°C° 0 mm 1 m/s 600 mmHg 65%
    12:00 +11°C° 0 mm 1 m/s 600 mmHg 63%
    13:00 +12°C° 0 mm 1 m/s 600 mmHg 62%
    14:00 +11°C° 0.1 mm 1 m/s 600 mmHg 68%
    15:00 +10°C° 0.1 mm 1 m/s 599 mmHg 75%
    16:00 +9°C° 0.1 mm 1 m/s 599 mmHg 81%
    17:00 +8°C° 0.1 mm 1 m/s 599 mmHg 86%
    18:00 +6°C° 0.1 mm 0 m/s 598 mmHg 92%
    19:00 +5°C° 0.1 mm 0 m/s 598 mmHg 97%
    20:00 +4°C° 0 mm 0 m/s 598 mmHg 97%
    21:00 +4°C° 0 mm 0 m/s 599 mmHg 97%
    22:00 +4°C° 0 mm 0 m/s 599 mmHg 97%
    23:00 +4°C° 0 mm 0 m/s 599 mmHg 97%

    19 Octobre, Vendredi

    Heure Température Précipitation Vent Pression Humidité
    00:00 +4°C° 0 mm 0 m/s 599 mmHg 97%
    01:00 +4°C° 0 mm 0 m/s 598 mmHg 97%
    02:00 +3°C° 0 mm 0 m/s 598 mmHg 97%
    03:00 +3°C° 0 mm 0 m/s 598 mmHg 97%
    04:00 +3°C° 0 mm 0 m/s 598 mmHg 97%
    05:00 +3°C° 0 mm 0 m/s 598 mmHg 97%
    06:00 +4°C° 0 mm 1 m/s 598 mmHg 97%
    07:00 +4°C° 0 mm 1 m/s 598 mmHg 97%
    08:00 +5°C° 0 mm 1 m/s 599 mmHg 91%
    09:00 +7°C° 0 mm 1 m/s 600 mmHg 85%
    10:00 +9°C° 0 mm 1 m/s 601 mmHg 79%
    11:00 +9°C° 0 mm 1 m/s 601 mmHg 75%
    12:00 +10°C° 0 mm 1 m/s 601 mmHg 71%
    13:00 +10°C° 0 mm 1 m/s 601 mmHg 67%
    14:00 +10°C° 0 mm 1 m/s 601 mmHg 70%
    15:00 +9°C° 0 mm 1 m/s 601 mmHg 74%
    16:00 +9°C° 0 mm 1 m/s 600 mmHg 77%
    17:00 +8°C° 0 mm 1 m/s 600 mmHg 83%
    18:00 +6°C° 0 mm 1 m/s 600 mmHg 90%
    19:00 +5°C° 0 mm 1 m/s 600 mmHg 96%
    20:00 +5°C° 0 mm 1 m/s 600 mmHg 96%
    21:00 +4°C° 0 mm 1 m/s 600 mmHg 96%
    22:00 +4°C° 0 mm 1 m/s 600 mmHg 96%
    23:00 +4°C° 0 mm 1 m/s 600 mmHg 96%

    20 Octobre, Samedi

    Heure Température Précipitation Vent Pression Humidité
    00:00 +3°C° 0 mm 1 m/s 600 mmHg 96%
    01:00 +2°C° 0 mm 1 m/s 599 mmHg 96%
    02:00 +2°C° 0 mm 1 m/s 599 mmHg 96%
    03:00 +2°C° 0 mm 1 m/s 599 mmHg 96%
    04:00 +2°C° 0 mm 1 m/s 599 mmHg 96%
    05:00 +1°C° 0 mm 1 m/s 599 mmHg 96%
    06:00 +1°C° 0 mm 1 m/s 600 mmHg 95%
    07:00 +1°C° 0 mm 1 m/s 600 mmHg 95%
    08:00 +3°C° 0 mm 1 m/s 601 mmHg 85%
    09:00 +5°C° 0 mm 1 m/s 602 mmHg 76%
    10:00 +7°C° 0 mm 1 m/s 603 mmHg 67%
    11:00 +8°C° 0 mm 1 m/s 603 mmHg 64%
    12:00 +8°C° 0 mm 2 m/s 603 mmHg 60%
    13:00 +8°C° 0 mm 2 m/s 603 mmHg 57%
    14:00 +8°C° 0 mm 2 m/s 603 mmHg 63%
    15:00 +7°C° 0 mm 2 m/s 603 mmHg 69%
    16:00 +6°C° 0 mm 2 m/s 602 mmHg 75%
    17:00 +5°C° 0 mm 2 m/s 602 mmHg 82%
    18:00 +3°C° 0 mm 2 m/s 602 mmHg 88%
    19:00 +3°C° 0 mm 1 m/s 601 mmHg 95%
    20:00 +3°C° 0 mm 1 m/s 601 mmHg 95%
    21:00 +1°C° 0 mm 2 m/s 602 mmHg 94%
    22:00 +1°C° 0 mm 2 m/s 602 mmHg 94%
    23:00 +1°C° 0 mm 2 m/s 601 mmHg 94%
    Voir plus